Location: Tel Aviv
(32.0670°N, 34.7670°E)
Time: 06:57:28
(UTC+03:00)

POLYITAN 1 - Visible Passes

Search period start: 19 September 2024 00:00
Search period end: 29 September 2024 00:00
Orbit: 539 x 558 km, 98.1° (Epoch: 18 September)

Date Brightness Start Highest point End Pass type
(mag) Time Alt. Az. Time Alt. Az. Time Alt. Az.
19 Sep ? 04:19:58 10° NNE 04:22:42 42° NE 04:22:42 42° NE visible
20 Sep ? 04:15:15 10° NNE 04:17:48 36° NE 04:17:48 36° NE visible
21 Sep ? 04:10:30 10° NNE 04:12:52 31° NE 04:12:52 31° NE visible
22 Sep ? 04:05:45 10° NNE 04:07:54 27° NE 04:07:54 27° NE visible
22 Sep ? 05:42:37 10° NW 05:43:34 11° WNW 05:43:34 11° WNW visible
23 Sep ? 04:01:00 10° NNE 04:02:55 23° NE 04:02:55 23° NE visible
23 Sep ? 05:37:07 10° NW 05:38:34 13° WNW 05:38:34 13° WNW visible
24 Sep ? 03:56:14 10° NE 03:57:52 20° NE 03:57:52 20° NE visible
24 Sep ? 05:31:48 10° NW 05:33:33 14° WNW 05:33:33 14° WNW visible
25 Sep ? 03:51:29 10° NE 03:52:49 17° ENE 03:52:49 17° ENE visible
25 Sep ? 05:26:34 10° NNW 05:28:29 16° WNW 05:28:29 16° WNW visible
26 Sep ? 03:46:43 10° NE 03:47:44 15° ENE 03:47:44 15° ENE visible
26 Sep ? 05:21:22 10° NNW 05:23:23 18° NW 05:23:23 18° NW visible
27 Sep ? 03:41:59 10° NE 03:42:36 13° ENE 03:42:36 13° ENE visible
27 Sep ? 05:16:12 10° NNW 05:18:16 20° NW 05:18:16 20° NW visible
28 Sep ? 03:37:17 10° ENE 03:37:27 11° ENE 03:37:27 11° ENE visible
28 Sep ? 05:11:01 10° NNW 05:13:06 22° NW 05:13:06 22° NW visible
